Weather in Terpinnia

Ukraine / Zaporizhia Region     46°59′14″N   35°25′24″E
temp.,
°C
wind,
m/s
gust,
m/s
humid.,
%
clouds,
%
prec.,
mm/h
press.,
hPa
HPBL,
m
2 march, tue
tue223:000n338434 0.0 102965
02:000nnw338217 0.0 103071
05:00−1nw23870 0.0 102960
08:00+1wnw35761 0.0 1029254
11:00+4w57580 0.0 10271021
14:00+5w795931 0.0 1025971
17:00+4wsw61266100 0.0 1022721
20:00+2wsw7157673 0.0 1021497
3 march, wed
wed323:00+3w7128298 0.0 1020624
02:00+1wnw7129298 0.1 1020571
05:00+2nnw71178100 0.0 1020912
08:00+2nnw7107599 0.1 1023920
11:00+5nnw686111 0.0 10241102
14:00+6nnw710505 0.0 10251402
17:00+5nnw48520 0.0 1025389
20:00+2nw34650 0.0 102784
4 march, thu
thu423:00+1wnw23700 0.0 102623
02:00+1wsw33750 0.0 102648
05:000wsw35800 0.0 102498
08:00+3sw58660 0.0 1023336
11:00+8sw710570 0.0 10211133
14:00+9sw810540 0.0 10191280
17:00+8sw6116354 0.0 1017793
20:00+5sw6147850 0.0 1016563
5 march, fri
fri523:00+3sw6148133 0.0 1015537
02:00+3sw6148517 0.0 1015516
05:00+2sw512910 0.0 1014387
08:00+4sw6108732 0.0 1014464
11:00+9sw697195 0.0 1014666
14:00+11ssw796196 0.0 10131067
17:00+9s61067100 0.0 1011360
20:00+6ssw4108068 0.0 1012254
6 march, sat
sat623:00+5sw410925 0.0 1012321
02:00+5sw379538 0.0 1012238
05:00+3nw369792 0.0 1012161
08:00+4n479196 0.1 1014348
11:00+2n71094100 0.8 1015529
14:00+4n6860100 1.5 10161064
17:00+3nnw6951100 0.0 10181218
20:00+1nnw71155100 0.0 1021830